Murray, KY

4:34 AM CST on November 15, 2019 (GMT -0600)
Kyle-Oakley

Weather History for KCEY - September, 2019

Change the Weather History Date:

Thursday, September 19, 2019

  Actual Average (WUND) Record (WUND)
Temperature  
Mean Temperature 76 °F -  
Max Temperature 91 °F - - (-1)
Min Temperature 62 °F - - (-1)
Cooling Degree Days 12    
Growing Degree Days 26 (Base 50)    
Moisture  
Dew Point 67 °F    
Average Humidity 77    
Maximum Humidity 100    
Minimum Humidity 38    
Precipitation  
Precipitation 0.00 in - - ()
Sea Level Pressure  
Sea Level Pressure 30.05 in    
Wind  
Wind Speed 3 mph (South)    
Max Wind Speed 12 mph    
Max Gust Speed 16 mph    
Visibility 10 miles    
Events      
Averages and records for this station are not official NWS values.
T = Trace of Precipitation, MM = Missing Value Source: NWS Daily Summary

Daily Weather History Graph

Daily Weather History Graph

Search for Another Location

Airport or City:

Astronomy

Sep. 19, 2019 Rise Set
Actual Time 6:38 AM CDT 6:55 PM CDT
Civil Twilight 6:12 AM CDT 7:21 PM CDT
Nautical Twilight 5:42 AM CDT 7:51 PM CDT
Astronomical Twilight 5:11 AM CDT 8:21 PM CDT
Moon 10:12 PM CDT (9/19) 11:34 AM CDT (9/19)
Length of Visible Light 13h 08m
Length of Day
12h 16m
Waning Gibbous, 74% of the Moon is Illuminated
Sep 19
Waning Gibbous
Sep 21
Last Quarter
Sep 28
New
Oct 5
First Quarter
Oct 13
Full

Hourly Weather History & Observations

Time (CDT) Temp. Heat Index Dew Point Humidity Pressure Visibility Wind Dir Wind Speed Gust Speed Precip Events Conditions
12:15 AM 68.0 °F - 66.2 °F 94% 30.02 in 10.0 mi NE 3.5 mph - N/A   Clear
12:35 AM 66.2 °F - 66.2 °F 100% 30.02 in 10.0 mi Calm Calm - N/A   Clear
12:55 AM 66.2 °F - 66.2 °F 100% 30.02 in 10.0 mi Calm Calm - N/A   Clear
1:15 AM 66.2 °F - 66.2 °F 100% 30.02 in 10.0 mi Calm Calm - N/A   Clear
1:35 AM 66.2 °F - 66.2 °F 100% 30.02 in 10.0 mi Calm Calm - N/A   Unknown
1:55 AM 66.2 °F - 66.2 °F 100% 30.02 in 10.0 mi Calm Calm - N/A   Unknown
2:15 AM 66.2 °F - 66.2 °F 100% 30.02 in 10.0 mi Calm Calm - N/A   Unknown
2:35 AM 64.4 °F - 64.4 °F 100% 30.02 in 10.0 mi Calm Calm - N/A   Clear
2:55 AM 64.4 °F - 64.4 °F 100% 30.02 in 10.0 mi Calm Calm - N/A   Clear
3:15 AM 64.4 °F - 64.4 °F 100% 30.02 in 10.0 mi Calm Calm - N/A   Clear
3:35 AM 64.4 °F - 64.4 °F 100% 30.01 in 10.0 mi Calm Calm - N/A   Clear
3:55 AM 64.4 °F - 64.4 °F 100% 30.02 in 10.0 mi Calm Calm - N/A   Clear
4:15 AM 64.4 °F - 64.4 °F 100% 30.02 in 10.0 mi Calm Calm - N/A   Unknown
4:35 AM 64.4 °F - 64.4 °F 100% 30.02 in 10.0 mi Calm Calm - N/A   Unknown
4:55 AM 64.4 °F - 64.4 °F 100% 30.02 in 10.0 mi Calm Calm - N/A   Clear
5:15 AM 64.4 °F - 64.4 °F 100% 30.02 in 10.0 mi Calm Calm - N/A   Clear
5:35 AM 62.6 °F - 62.6 °F 100% 30.03 in 10.0 mi Calm Calm - N/A   Clear
5:55 AM 62.6 °F - 62.6 °F 100% 30.03 in 9.0 mi East 4.6 mph - N/A   Unknown
6:15 AM 64.4 °F - 64.4 °F 100% 30.04 in 10.0 mi ESE 3.5 mph - N/A   Unknown
6:35 AM 64.4 °F - 64.4 °F 100% 30.04 in 4.0 mi SE 3.5 mph - N/A   Unknown
6:55 AM 64.4 °F - 64.4 °F 100% 30.05 in 6.0 mi ESE 3.5 mph - N/A   Clear
7:15 AM 64.4 °F - 64.4 °F 100% 30.05 in 8.0 mi SE 4.6 mph - N/A   Clear
7:35 AM 68.0 °F - 68.0 °F 100% 30.05 in 10.0 mi Calm Calm - N/A   Clear
7:55 AM 71.6 °F - 69.8 °F 94% 30.06 in 10.0 mi SE 4.6 mph - N/A   Clear
8:15 AM 73.4 °F - 71.6 °F 94% 30.06 in 10.0 mi SE 5.8 mph - N/A   Clear
8:55 AM 75.2 °F - 71.6 °F 89% 30.07 in 7.0 mi SSE 9.2 mph 16.1 mph N/A   Clear
9:15 AM 75.2 °F - 71.6 °F 89% 30.07 in 10.0 mi SSE 6.9 mph - N/A   Clear
9:35 AM 77.0 °F - 71.6 °F 83% 30.08 in 10.0 mi SSE 11.5 mph 16.1 mph N/A   Clear
9:55 AM 78.8 °F - 71.6 °F 78% 30.09 in 10.0 mi SSE 10.4 mph - N/A   Clear
10:15 AM 80.6 °F 84.6 °F 71.6 °F 74% 30.09 in 10.0 mi SSW 8.1 mph - N/A   Clear
10:55 AM 84.2 °F 89.6 °F 71.6 °F 66% 30.09 in 10.0 mi SSE 6.9 mph - N/A   Clear
11:15 AM 84.2 °F 87.3 °F 68.0 °F 58% 30.09 in 10.0 mi South 5.8 mph - N/A   Clear
11:35 AM 84.2 °F 87.3 °F 68.0 °F 58% 30.09 in 10.0 mi WSW 9.2 mph - N/A   Clear
11:55 AM 86.0 °F 89.4 °F 68.0 °F 55% 30.09 in 10.0 mi SW 5.8 mph - N/A   Clear
12:15 PM 87.8 °F 91.4 °F 68.0 °F 52% 30.09 in 10.0 mi SW 3.5 mph - N/A   Clear
12:35 PM 89.6 °F 92.2 °F 66.2 °F 46% 30.08 in 10.0 mi SW 4.6 mph - N/A   Clear
12:55 PM 89.6 °F 92.2 °F 66.2 °F 46% 30.07 in 10.0 mi Calm Calm - N/A   Clear
1:15 PM 89.6 °F 92.2 °F 66.2 °F 46% 30.07 in 10.0 mi West 4.6 mph - N/A   Clear
1:35 PM 91.4 °F 93.2 °F 64.4 °F 41% 30.06 in 10.0 mi SSW 5.8 mph - N/A   Scattered Clouds
1:55 PM 91.4 °F 93.2 °F 64.4 °F 41% 30.05 in 10.0 mi West 5.8 mph - N/A   Partly Cloudy
2:15 PM 91.4 °F 93.2 °F 64.4 °F 41% 30.05 in 10.0 mi West 4.6 mph - N/A   Clear
2:35 PM 89.6 °F 90.1 °F 62.6 °F 40% 30.05 in 10.0 mi SW 3.5 mph - N/A   Clear
2:55 PM 89.6 °F 91.1 °F 64.4 °F 43% 30.04 in 10.0 mi SSW 6.9 mph - N/A   Clear
3:15 PM 91.4 °F 93.2 °F 64.4 °F 41% 30.03 in 10.0 mi SSE 5.8 mph - N/A   Clear
3:35 PM 91.4 °F 92.1 °F 62.6 °F 38% 30.02 in 10.0 mi WSW 3.5 mph - N/A   Partly Cloudy
4:35 PM 91.4 °F 93.2 °F 64.4 °F 41% 30.02 in 10.0 mi South 4.6 mph - N/A   Clear
4:55 PM 89.6 °F 91.1 °F 64.4 °F 43% 30.02 in 10.0 mi SSE 3.5 mph - N/A   Clear
5:15 PM 89.6 °F 90.1 °F 62.6 °F 40% 30.01 in 10.0 mi Calm Calm - N/A   Clear
5:35 PM 89.6 °F 91.1 °F 64.4 °F 43% 30.01 in 10.0 mi SSE 3.5 mph - N/A   Clear
5:55 PM 84.2 °F 86.6 °F 66.2 °F 55% 30.01 in 10.0 mi Calm Calm - N/A   Clear
6:15 PM 84.2 °F 86.6 °F 66.2 °F 55% 30.01 in 10.0 mi Calm Calm - N/A   Clear
6:35 PM 82.4 °F 84.6 °F 66.2 °F 58% 30.01 in 10.0 mi Calm Calm - N/A   Clear
6:55 PM 82.4 °F 84.6 °F 66.2 °F 58% 30.02 in 10.0 mi Calm Calm - N/A   Clear
7:15 PM 80.6 °F 82.3 °F 64.4 °F 58% 30.02 in 10.0 mi Calm Calm - N/A   Clear
7:35 PM 80.6 °F 82.7 °F 66.2 °F 61% 30.03 in 10.0 mi Calm Calm - N/A   Unknown
7:55 PM 77.0 °F - 68.0 °F 74% 30.04 in 10.0 mi Calm Calm - N/A   Clear
8:15 PM 77.0 °F - 69.8 °F 78% 30.05 in 10.0 mi ESE 3.5 mph - N/A   Clear
8:35 PM 77.0 °F - 69.8 °F 78% 30.05 in 10.0 mi SSE 5.8 mph - N/A   Unknown
8:55 PM 77.0 °F - 71.6 °F 83% 30.06 in 10.0 mi SSE 4.6 mph - N/A   Clear
9:15 PM 77.0 °F - 71.6 °F 83% 30.07 in 10.0 mi South 5.8 mph - N/A   Clear
9:35 PM 77.0 °F - 71.6 °F 83% 30.08 in 10.0 mi South 6.9 mph - N/A   Clear
9:55 PM 77.0 °F - 73.4 °F 89% 30.08 in 10.0 mi South 5.8 mph - N/A   Clear
10:15 PM 77.0 °F - 73.4 °F 89% 30.08 in 10.0 mi South 4.6 mph - N/A   Clear
10:35 PM 75.2 °F - 73.4 °F 94% 30.08 in 10.0 mi South 4.6 mph - N/A   Unknown
10:55 PM 75.2 °F - 73.4 °F 94% 30.08 in 10.0 mi South 4.6 mph - N/A   Clear
11:15 PM 75.2 °F - 73.4 °F 94% 30.09 in 10.0 mi South 5.8 mph - N/A   Clear
11:35 PM 75.2 °F - 73.4 °F 94% 30.09 in 10.0 mi South 4.6 mph - N/A   Unknown
11:55 PM 75.2 °F - 73.4 °F 94% 30.09 in 10.0 mi South 4.6 mph - N/A   Unknown